Simultaneous Nadir Overpasses (SNOs) Predictions

Prediction of SNOs between GOES-16 and TERRA Satellite Orbit:

Table of predicted SNOs for the next 14.0 days since TLE Epoch: 5/29/2021
Index Date Time (GOES-16) GOES-16 Lat,Lon TERRA Lat,Lon Distance(km) Time Diff (sec)
1 05/29/2021 15:21:43 -0.02, -75.21 -0.33, -73.78 162.59 80
2 05/30/2021 03:45:47 0.02, -75.19 -0.76, -78.98 429.42 80
3 06/01/2021 03:33:33 0.03, -75.21 -0.14, -76.01 91.34 80
4 06/03/2021 03:18:39 0.04, -75.24 0.49, -73.05 247.85 80
5 06/03/2021 15:42:34 -0.04, -75.26 0.60, -78.21 335.61 80
6 06/05/2021 15:30:20 -0.04, -75.30 -0.03, -75.25 4.98 80
7 06/07/2021 15:15:26 -0.04, -75.34 -0.66, -72.29 345.54 80
8 06/08/2021 03:39:30 0.03, -75.33 -0.41, -77.49 245.35 80
9 06/10/2021 03:24:36 0.04, -75.37 0.22, -74.53 95.78 80
10 06/10/2021 15:48:30 -0.03, -75.40 0.86, -79.69 487.45 80
11 06/12/2021 03:12:22 0.04, -75.42 0.86, -71.57 437.08 80
